Volver al catálogo

STARLINK-11624

ActivoComunicacionesVLEO
NORAD 63105·PAYLOAD·🇺🇸 United States

Lanzado Feb 27, 2025 desde Cape Canaveral Space Force Station

Loading…

Próximos Pases (próximas 24 horas)

TLE

ActualizadoSource: CelesTrak SupGP

Época: Sep 14, 2026, 22:43 UTC

1 63105C 25039B   26257.94701389 -.00057475  00000+0 -44649-3 0  2573
2 63105  43.0001 176.4407 0001486 265.7167 199.3980 15.70862682    12

Sigue STARLINK-11624 en tiempo real con AllMySat

Download on the App Store